Weather in Mirny

Russia / Tver Oblast     56°13′55″N   33°09′55″E
temp.,
°C
wind,
m/s
gust,
m/s
humid.,
%
clouds,
%
prec.,
mm/h
press.,
hPa
HPBL,
m
10 may, mon
mon1000:00+3nw11680 0.0 102410
03:00+2w11685 0.0 102610
06:00+3s116856 0.0 102711
09:00+10ssw22483 0.0 1027469
12:00+14sw22376 0.0 10271511
15:00+16ssw22345 0.0 10261577
18:00+15sse114610 0.0 10261010
21:00+9se23684 0.0 102848
11 may, tue
tue1100:00+6se22695 0.0 102915
03:00+5se117349 0.0 102910
06:00+6e237275 0.0 102962
09:00+11e2453100 0.0 1029427
12:00+15e3539100 0.0 1028897
15:00+17e453788 0.0 10271042
18:00+16e36515 0.0 1026819
21:00+11e397598 0.0 1026165
12 may, wed
wed1200:00+9e3108938 0.0 1026183
03:00+9ese27970 0.0 1026146
06:00+10ese259891 0.0 1026137
09:00+15ese237425 0.0 1025583
12:00+17e367385 0.1 10231039
15:00+18e4870100 1.2 10211129
18:00+15ene51381100 1.8 10181027
21:00+11ese4139287 7.3 1019729
13 may, thu
thu1300:00+8ese38974 0.0 1020328
03:00+6e269815 0.0 1020141
06:00+7e310968 0.0 1019297
09:00+11ese41186100 0.0 1017593
12:00+15sse596084 0.1 10161624
15:00+17sse59485 0.2 10152250
18:00+16sse475635 0.0 10161601
21:00+10ese23815 0.0 101641
14 may, fri
fri1400:00+9ese388654 0.0 1017144
03:00+9ese3892100 0.0 1016172
06:00+10e3108999 0.0 1016268
09:00+16ese5107029 0.0 1014561
12:00+19ese6106490 0.1 10131295
15:00+15se51286100 2.9 1012555
18:00+13e3997100 4.6 1010538
21:00+13ese41196100 5.1 1009384